Flag for Germany Weather past 2 weeks in Leimen, Baden-Württemberg, Germany

Now
55 °F

Overcast.


Feels Like: 52 °F
Forecast: 40 / 55 °F
Wind: 15 mph from North

Location: Baden Wurttemberg - Neuostheim

Current Time: Apr 27, 2015 at 6:17:03 PM

Latest Report: Apr 27, 2015 at 5:50 PM


Visibility: N/A

Pressure: 29.62 "Hg

Humidity: 82%

Dew point: 50 °F

Location of LeimenLocation

Historic Weather in Leimen — Graph

°F

Leimen temperature yesterday

Maximum temperature yesterday: 72 °F (at 4:50 PM)
Minimum temperature yesterday: 55 °F (at 7:50 AM)
Average temperature yesterday: 65 °F

Past Weeks' High & Low Weather Summary

 TemperatureHumidityPressure
High79 °F (Apr 15, 4:20 PM)100% (Apr 27, 6:20 AM)30.45 "Hg (Apr 27, 6:20 AM)
Low37 °F (Apr 23, 5:50 AM)19% (Apr 15, 8:20 PM)29.56 "Hg (Apr 27, 6:20 AM)
Average60 °F49%30.10 "Hg
* Reported Apr 12 4:20 PM — Apr 27 4:50 PM, Leimen, Weather by CustomWeather, © 2015

Note: Actual official high and low records may vary slightly from our data, if they occured in-between our weather recording intervals... More about our weather records

Advertising

Leimen weather history for previous 24 hours

 ConditionsComfort  
Time TempWeatherWind HumidityBarometerVisibility
4:50 PM
Mon, Apr 27
57 °FMore clouds than sun.14 mph82%29.59 "HgN/A
4:20 PM57 °FBroken clouds.14 mph82%29.59 "HgN/A
3:50 PM59 °FBroken clouds.14 mph77%29.59 "HgN/A
3:20 PM61 °FPartly sunny.12 mph77%29.59 "HgN/A
2:50 PM61 °FBroken clouds.8 mph77%29.59 "HgN/A
2:20 PM61 °FPartly sunny.9 mph77%29.59 "HgN/A
1:50 PM61 °FPartly sunny.8 mph77%29.59 "HgN/A
1:20 PM61 °FPartly sunny.7 mph77%29.59 "HgN/A
12:50 PM61 °FBroken clouds.7 mph72%29.62 "HgN/A
12:20 PM61 °FPartly sunny.8 mph77%29.62 "HgN/A
11:50 AM61 °FPartly sunny.7 mph77%29.62 "HgN/A
11:20 AM61 °FScattered showers. Partly sunny.7 mph83%29.62 "HgN/A
10:50 AM61 °FScattered showers. Partly sunny.6 mph77%29.59 "HgN/A
10:20 AM59 °FScattered showers. Partly sunny.5 mph88%29.59 "HgN/A
9:50 AM59 °FScattered showers. Broken clouds.5 mph88%29.59 "HgN/A
9:20 AM59 °FScattered showers. Broken clouds.3 mph100%29.59 "HgN/A
8:50 AM57 °FPartly sunny.3 mph100%29.59 "HgN/A
8:20 AM57 °FBroken clouds.3 mph100%29.59 "HgN/A
7:50 AM57 °FPartly sunny.1 mph100%29.59 "HgN/A
7:20 AM57 °FPartly sunny.3 mph100%29.59 "HgN/A
6:50 AM57 °FPassing clouds.3 mph100%29.56 "HgN/A
6:20 AM55 °FPassing clouds.5 mph100%29.56 "HgN/A
5:50 AM57 °FScattered showers. Passing clouds.2 mph94%29.59 "HgN/A
7:20 PM
Sun, Apr 26
68 °FSunny.3 mph49%29.65 "Hg10 mi
6:50 PM70 °FPassing clouds.5 mph46%29.65 "HgN/A
6:20 PM70 °FPassing clouds.6 mph46%29.65 "HgN/A
Weather by CustomWeather, © 2015

See weather overviewHow to use our weather pages